Theta_e
317 315 315 315 315 313 313 313 312 311 310 309 307 310 305 304 302 313 316 317 308 301 295 304 301 296 294 300 300 300 300 298 300 300 301 299 301 300 299 298 296 299 299 298 296 297 294 296 293 296 297 297 298 299 298 299 301 297 293 299 300 311 296 294 295 296 299 299 302 304 303 300 297 296 298 297 295 297 293 292 295 300 304 301 298 298 303
317 315 315 315 314 313 313 313 312 312 311 308 307 308 305 305 305 309 316 310 307 298 294 292 292 293 298 298 298 301 299 298 298 297 298 299 298 298 299 300 300 299 301 299 296 298 291 298 295 293 299 295 301 299 298 300 298 298 295 297 303 295 296 294 289 288 291 292 296 299 302 299 296 296 296 299 299 299 299 301 302 301 302 303 298 295 302
316 315 315 314 314 313 313 313 312 312 312 311 307 308 309 306 309 309 313 312 301 296 294 292 291 297 297 297 295 297 297 300 298 297 297 299 298 298 297 299 299 299 300 300 300 300 297 295 300 299 298 298 301 299 298 300 297 302 306 315 312 298 299 297 289 285 283 284 284 288 293 294 298 299 297 298 298 298 297 295 298 291 301 304 301 301 309
316 315 315 314 313 313 313 313 313 312 312 310 308 311 308 304 299 305 299 301 299 299 302 295 295 295 297 293 296 297 296 298 299 298 299 299 300 299 300 301 301 299 299 298 298 299 301 298 298 298 297 297 298 299 299 304 307 321 323 316 307 299 302 301 296 291 287 288 290 296 305 295 292 295 296 296 298 302 301 298 296 293 299 300 302 306 307
316 315 315 314 313 313 313 312 312 312 311 311 309 312 308 310 302 298 293 299 296 295 295 297 297 295 296 289 296 295 296 298 297 300 295 300 300 301 301 302 300 299 298 299 298 300 300 302 300 299 299 300 299 300 302 303 311 319 310 312 304 299 295 298 299 300 298 297 297 299 300 295 295 295 295 297 297 299 302 298 298 304 302 292 302 309 307
316 316 315 315 314 313 313 312 312 312 310 309 312 312 311 295 300 303 306 294 288 290 293 296 296 300 300 295 299 294 294 296 296 299 299 301 302 298 299 302 302 301 301 300 297 299 299 299 297 301 299 298 301 299 303 301 308 309 301 305 298 295 293 299 298 296 297 297 297 297 299 296 295 295 297 298 297 297 299 305 308 306 300 298 306 309 308
316 316 316 315 314 314 313 313 312 311 308 309 313 302 304 307 307 305 312 300 301 295 299 300 297 298 302 297 297 295 295 295 297 298 298 299 298 299 293 297 300 301 302 300 296 297 292 293 299 297 297 298 297 295 298 301 302 302 300 299 301 295 295 301 299 295 296 297 297 297 296 295 296 298 299 300 299 297 300 302 309 305 302 308 309 309 309
316 316 315 315 315 314 314 313 312 311 308 313 314 309 302 301 303 304 311 310 303 299 297 300 297 294 304 292 297 298 294 294 297 298 297 296 298 301 296 298 298 298 297 297 295 298 299 298 294 298 296 293 297 297 298 294 298 300 298 299 298 294 293 304 298 293 295 297 299 297 295 295 294 298 299 300 299 299 310 311 310 310 309 310 309 307 306
316 315 315 315 315 314 314 313 312 310 309 316 313 311 311 308 311 312 307 303 305 307 301 298 298 293 294 291 299 299 296 294 297 297 300 297 298 300 298 300 297 298 296 295 295 297 296 298 297 298 298 292 298 296 296 300 295 297 296 297 297 298 293 299 297 291 292 296 296 296 296 296 296 296 298 298 298 295 297 307 310 308 305 307 307 304 304
316 316 315 316 315 314 314 314 313 310 308 313 310 309 315 311 311 316 311 301 310 303 303 299 294 292 295 299 299 298 297 300 300 294 298 302 301 301 301 300 296 295 295 294 297 297 297 297 297 297 297 298 298 299 300 297 296 295 294 297 294 297 293 291 292 288 290 294 296 296 295 291 290 293 297 299 302 302 300 308 314 312 311 306 304 305 311
316 316 315 315 315 315 315 315 314 310 310 307 308 309 314 310 309 309 309 302 304 305 301 294 293 299 298 300 298 299 298 299 301 292 293 300 300 302 301 300 295 292 294 298 300 300 299 298 300 299 297 298 298 297 298 301 302 300 297 296 296 299 294 291 294 287 289 294 294 296 289 283 287 299 302 304 304 304 307 307 310 311 312 309 311 311 313
316 315 315 315 316 315 315 315 314 312 308 307 308 309 315 315 312 310 306 302 300 306 295 295 296 300 299 299 299 297 297 298 299 301 296 300 299 300 300 298 296 291 298 300 302 301 303 305 303 299 299 298 298 298 299 298 298 303 298 296 295 295 294 292 294 287 287 290 292 289 283 286 300 303 304 305 307 310 309 309 311 311 311 311 310 311 311
316 315 315 316 315 315 315 315 314 313 311 308 308 311 316 318 313 311 308 303 301 304 301 295 300 300 300 300 300 299 300 300 302 306 301 302 298 299 301 300 298 299 303 301 302 301 300 298 295 299 299 298 298 299 300 298 297 298 296 297 294 292 291 293 291 291 288 285 283 278 284 297 303 303 305 309 305 304 309 307 309 311 311 310 308 309 309
316 315 316 316 315 315 315 315 314 314 312 309 307 309 314 316 310 307 306 301 302 306 307 297 300 299 299 299 299 299 300 300 300 301 299 302 299 298 302 304 303 306 300 303 304 299 294 290 288 288 290 292 291 291 298 301 298 297 297 297 299 296 293 292 288 292 284 286 283 284 292 294 297 299 301 301 299 300 302 299 303 310 311 311 309 309 310
316 315 315 315 315 315 315 315 315 314 313 310 308 311 314 316 314 311 311 307 304 305 300 294 298 302 300 301 301 298 298 299 297 297 304 304 303 303 301 304 302 300 301 300 295 298 294 293 289 286 287 283 280 286 296 294 298 300 299 299 298 294 291 293 286 289 289 284 280 280 282 281 289 298 303 304 307 307 306 303 301 308 312 314 310 309 310
316 315 315 315 315 315 315 315 315 314 314 311 308 309 312 318 318 315 312 308 303 294 300 305 305 304 299 300 303 300 299 298 299 298 298 301 302 303 304 305 306 303 303 302 299 295 295 290 288 282 282 283 289 287 286 292 292 298 301 300 299 298 295 292 289 289 286 285 281 280 281 284 291 297 302 301 300 308 307 300 296 305 311 313 313 311 311
316 315 315 316 315 315 315 315 315 314 314 311 306 307 311 317 318 313 311 308 304 300 309 308 306 306 300 299 301 299 300 297 297 294 297 298 302 301 303 306 305 306 304 298 298 294 291 290 289 285 287 287 280 280 287 286 286 289 294 298 297 293 290 284 282 284 289 286 282 280 288 289 297 300 300 300 301 307 299 288 289 300 308 312 312 311 311
317 315 315 315 315 315 315 315 315 315 313 312 308 306 310 316 320 314 310 307 302 300 306 310 304 299 299 301 299 305 304 299 300 300 296 301 304 303 303 305 300 305 306 297 297 292 291 289 284 283 283 293 290 284 278 286 285 284 286 290 289 290 289 287 284 283 287 290 283 285 290 299 303 300 301 298 305 298 288 283 291 303 306 310 313 314 314
317 315 315 315 315 315 315 314 314 314 314 312 309 311 314 317 318 313 310 304 300 294 305 311 311 308 308 308 307 306 304 301 300 295 295 298 300 306 306 304 304 295 302 295 293 292 291 291 293 285 283 288 290 283 288 283 282 288 289 284 284 285 289 292 288 286 283 282 282 282 285 295 302 301 303 301 299 287 282 292 304 305 304 309 312 312 313
317 315 314 315 315 315 314 314 314 314 314 313 309 306 311 314 322 318 308 302 304 300 305 309 310 307 311 304 300 300 301 302 301 297 297 295 301 304 295 293 297 301 299 296 292 295 290 290 291 292 285 286 289 292 284 284 289 288 287 290 285 287 285 281 285 286 286 285 284 282 279 294 304 301 299 299 290 287 295 303 303 306 304 310 312 313 312
317 315 314 314 314 314 314 314 314 314 314 314 310 307 312 320 321 321 317 310 302 299 299 310 314 312 312 309 307 307 304 302 303 299 302 301 305 298 287 291 295 297 296 295 290 292 294 289 291 292 293 290 292 290 284 285 288 294 293 292 289 292 284 282 285 291 281 281 281 281 288 298 303 300 291 298 302 302 305 301 300 302 303 306 308 309 309
317 315 314 314 314 314 314 314 314 313 313 313 311 308 309 315 319 321 322 316 306 302 301 309 314 314 317 317 312 308 308 308 310 308 302 301 305 298 298 302 303 301 301 299 295 295 295 295 295 291 289 291 292 287 289 283 283 291 297 293 284 293 289 288 286 292 289 286 287 292 296 299 304 304 302 304 307 307 306 304 302 301 302 303 304 304 305
317 314 313 314 314 314 313 313 313 313 312 313 311 305 307 310 315 319 315 307 309 312 317 314 315 315 318 317 316 309 310 310 309 308 306 300 297 301 302 300 300 307 308 302 294 295 296 294 293 295 291 294 294 289 290 289 284 290 289 293 291 300 300 298 294 292 296 296 299 301 301 302 304 307 307 304 304 307 305 304 302 303 303 304 303 304 305
316 315 313 314 314 313 313 313 313 312 312 312 311 304 304 309 311 316 312 308 306 304 306 309 307 304 307 310 311 309 310 309 311 312 311 306 298 298 302 306 308 308 304 306 305 297 298 296 296 295 290 294 293 288 286 285 290 294 293 293 297 300 300 296 292 296 290 285 296 299 299 302 304 304 304 304 304 305 306 304 304 304 304 304 305 306 305
315 314 313 313 313 313 313 313 312 312 312 311 311 311 311 310 313 315 309 302 302 300 297 302 305 312 316 317 312 309 309 313 314 311 310 309 304 300 302 308 311 304 304 307 308 304 300 296 295 294 290 297 296 288 294 291 289 295 288 291 293 293 302 295 298 296 291 291 297 301 303 304 305 303 302 301 302 304 306 306 307 306 305 304 305 306 306
315 314 313 313 313 313 313 312 311 312 311 311 311 305 305 307 312 315 313 311 309 306 301 300 305 317 318 316 313 314 316 314 313 313 311 310 309 307 307 312 309 312 310 312 305 302 299 298 296 296 292 293 300 292 294 295 293 297 295 291 296 298 303 292 296 293 294 297 300 301 301 302 303 305 305 305 305 302 304 305 306 305 305 304 305 305 305
315 314 313 313 313 312 312 311 311 311 311 311 309 305 305 309 313 312 309 309 304 301 300 299 304 312 316 313 316 317 316 312 310 309 312 313 312 310 310 308 307 306 305 304 305 303 300 297 296 294 297 296 302 299 299 297 296 294 294 296 301 299 293 296 296 292 290 293 293 300 294 292 299 302 305 305 306 306 303 304 304 305 304 304 304 304 305
315 313 313 312 312 312 311 311 311 311 311 310 309 307 308 308 312 317 316 314 308 300 300 300 301 307 315 310 317 314 313 314 310 310 309 312 312 310 309 307 306 305 304 302 299 299 297 296 295 301 302 303 297 295 300 298 298 295 295 294 299 296 295 294 291 290 289 295 300 299 298 298 300 304 305 306 307 306 305 303 302 304 305 304 303 302 303
314 313 313 312 311 311 311 310 310 310 311 309 306 307 310 313 315 318 318 320 314 309 304 305 307 307 302 307 315 311 314 312 311 309 310 311 311 310 308 309 306 307 308 306 304 301 299 299 302 299 299 303 298 294 296 290 291 288 291 297 300 301 301 299 297 296 298 302 302 302 300 299 301 305 307 307 308 307 306 306 307 306 306 304 304 303 303
314 313 312 311 311 311 310 310 310 310 310 306 305 308 307 310 314 313 313 318 316 313 304 299 296 301 310 313 311 314 315 314 312 313 311 309 310 308 307 308 309 314 308 306 303 300 301 301 304 306 308 307 299 297 292 290 290 291 299 301 302 303 304 304 303 300 298 304 305 304 303 303 304 306 307 308 310 310 307 306 307 306 308 309 306 303 304
313 312 312 311 310 310 310 309 309 310 309 304 306 306 303 301 309 316 312 313 314 312 306 303 299 306 306 311 311 309 311 315 311 310 313 313 313 313 314 314 313 314 305 304 302 301 304 300 301 304 306 306 303 295 291 290 288 289 298 301 302 302 302 303 304 305 305 304 305 306 305 305 305 305 304 305 307 310 310 311 313 314 312 310 306 306 305
312 312 311 310 310 310 309 309 309 309 304 302 305 306 307 308 311 311 311 312 314 311 304 298 296 297 300 306 313 319 317 318 316 317 314 317 311 314 312 312 309 310 308 303 305 302 301 302 302 302 299 305 306 295 294 290 289 290 299 301 302 303 302 303 304 304 305 306 305 301 301 301 303 302 300 305 307 309 309 309 309 308 312 310 309 308 307
312 311 310 310 310 309 309 309 310 308 303 307 309 310 309 309 309 310 311 311 312 309 309 300 294 298 297 300 312 317 318 313 309 311 309 316 311 311 308 314 310 309 323 308 298 296 303 304 302 300 301 304 299 297 293 292 294 297 299 304 303 303 303 303 304 304 304 305 303 298 297 299 302 304 306 306 307 307 307 306 308 308 308 309 307 307 306
311 310 310 310 309 309 309 310 311 310 309 306 308 311 314 312 310 309 310 312 308 308 307 300 297 296 296 308 303 307 319 305 305 305 302 312 315 309 307 308 308 304 307 302 305 303 304 306 297 298 301 299 300 296 291 294 297 299 301 303 304 302 303 303 302 302 303 304 305 304 303 304 305 304 304 304 305 306 308 306 307 306 306 307 307 308 309
310 310 309 310 310 310 311 311 307 307 309 313 313 313 311 311 311 311 313 311 302 302 300 301 300 295 294 297 298 302 315 308 303 307 302 307 313 307 307 302 303 299 302 309 303 301 299 298 302 297 293 298 296 290 294 295 298 300 300 301 301 301 302 301 302 302 303 304 304 303 304 306 304 302 302 303 304 305 305 305 305 305 304 304 305 307 307
309 310 310 310 311 311 309 311 307 307 307 308 311 318 317 315 315 313 313 316 308 301 299 299 299 294 295 292 292 303 314 305 308 307 307 308 306 310 307 303 297 301 309 303 297 300 299 305 299 292 296 293 293 295 296 298 300 300 300 300 302 301 301 300 301 303 303 304 304 303 304 305 303 302 302 302 303 304 304 304 305 305 304 303 304 305 305
309 310 311 311 308 307 306 309 311 312 312 314 317 319 319 319 316 316 313 309 312 311 301 298 296 297 299 297 302 306 306 297 305 303 305 301 299 307 302 298 295 303 302 299 299 297 298 308 297 292 292 290 291 298 300 301 302 301 301 302 303 302 303 302 304 303 302 302 302 302 302 301 301 302 302 303 303 303 303 303 304 303 303 304 305 306 305
310 310 305 306 306 306 307 310 313 315 319 318 319 312 308 311 304 306 307 303 307 311 302 301 296 299 303 300 297 307 304 300 304 299 300 304 299 299 304 300 300 302 292 294 298 303 301 299 296 293 293 296 299 302 302 303 303 303 304 304 303 303 302 303 304 301 300 299 298 298 300 300 299 300 301 302 302 302 303 304 304 305 305 306 306 307 307
309 306 306 307 307 306 308 312 317 319 315 314 315 307 304 307 303 300 301 303 304 298 304 299 296 299 300 299 300 307 305 300 300 300 295 302 299 296 301 294 301 299 288 292 296 307 295 293 294 294 291 295 298 301 304 304 304 304 305 303 304 303 304 304 305 303 300 299 300 300 300 300 299 301 301 301 302 303 303 303 304 304 305 305 306 308 307
305 304 306 308 308 311 316 315 319 315 315 307 309 305 301 305 298 293 306 297 296 302 303 298 302 302 303 300 301 301 309 303 297 296 296 301 305 296 299 298 298 294 286 287 291 301 291 287 291 292 289 294 296 301 303 304 304 304 304 304 305 305 305 304 305 305 304 303 303 304 304 304 305 304 303 303 303 303 303 304 305 305 305 306 308 306 306
306 308 311 310 312 314 315 313 313 312 309 304 304 305 302 293 301 302 301 295 293 297 306 303 304 304 307 306 303 299 308 311 307 305 300 296 306 303 296 293 300 292 289 287 296 298 294 292 290 286 286 294 298 301 303 303 304 305 304 304 305 304 305 304 304 304 304 303 303 302 303 304 304 305 305 305 304 303 304 305 305 305 305 305 308 307 305
309 309 309 309 309 310 313 312 309 305 306 307 298 288 293 297 301 299 299 291 293 303 303 305 301 301 302 305 304 306 306 310 308 307 299 296 304 299 296 297 297 289 283 292 300 295 292 285 285 286 293 298 300 302 302 301 304 303 304 304 307 306 305 304 303 303 303 302 300 300 301 302 302 302 303 302 303 303 304 305 306 306 307 307 308 305 306
310 309 308 306 309 309 309 295 302 303 289 290 287 285 291 288 292 293 296 301 310 302 303 312 309 309 311 311 306 309 307 311 303 302 299 296 304 302 296 292 291 285 290 298 295 290 286 282 281 286 294 299 301 301 301 302 302 303 303 304 303 303 304 303 301 300 300 300 300 299 300 300 300 301 303 303 304 304 305 307 308 306 306 306 306 306 305
311 312 307 307 303 305 304 289 304 300 289 286 285 282 288 288 290 295 298 296 301 303 304 302 303 303 300 307 303 304 305 306 307 303 301 304 300 296 295 289 289 294 298 293 291 285 284 287 288 291 297 300 303 301 302 303 302 302 302 302 300 299 299 299 299 298 298 299 299 299 300 299 299 300 300 301 304 304 305 305 307 309 308 306 305 305 305
306 305 301 294 291 296 290 285 295 287 283 286 291 291 292 289 292 293 294 302 305 302 306 305 304 304 303 306 306 306 304 300 308 298 296 299 295 295 292 288 295 296 291 286 287 288 288 288 294 297 298 299 301 302 302 300 299 299 298 298 297 298 298 298 297 297 297 297 298 299 298 298 299 298 299 300 301 303 304 304 305 306 307 306 305 305 305
301 292 290 289 289 287 287 284 287 287 293 297 295 295 294 296 299 301 305 309 306 305 305 306 305 307 303 305 302 299 304 303 297 298 301 298 291 289 296 298 296 289 288 286 281 280 281 287 293 295 298 299 299 298 298 298 298 298 297 296 297 298 297 298 297 297 298 298 298 298 298 298 298 298 298 300 300 301 301 304 305 305 305 305 305 304 305
300 304 294 289 286 287 296 286 288 291 296 297 298 300 300 301 304 306 308 308 305 308 309 308 307 305 302 302 302 301 303 302 297 300 300 294 291 293 298 292 286 286 282 278 278 281 287 292 294 296 296 296 297 297 297 297 297 297 297 297 298 297 297 297 297 297 297 298 298 298 298 297 298 299 300 299 300 300 303 304 304 305 305 306 306 305 305
293 298 297 288 285 288 289 293 298 298 300 300 299 300 302 306 305 304 308 310 308 310 307 305 302 302 301 307 303 298 300 301 297 297 298 296 296 292 284 289 287 288 288 282 282 287 290 294 294 296 297 298 297 296 297 297 297 297 297 296 296 297 297 297 297 297 298 298 297 298 298 298 298 299 299 300 300 300 301 301 302 303 304 304 304 303 303
305 294 288 286 293 296 296 298 298 296 298 299 301 300 303 306 305 306 310 311 309 306 307 305 304 302 299 303 300 298 295 298 291 288 297 293 288 283 284 280 284 281 290 290 288 290 292 294 297 297 297 298 297 297 296 296 297 296 297 296 296 297 297 297 298 298 299 298 298 298 298 299 299 298 299 299 300 299 299 301 301 302 303 303 303 303 302
295 292 298 294 295 296 299 300 297 295 297 297 299 304 306 306 306 307 310 310 309 308 307 306 307 300 300 300 291 295 293 297 295 292 291 288 290 290 289 282 282 283 286 290 291 293 295 296 296 295 295 296 297 295 295 295 299 299 298 297 298 298 298 298 298 299 298 298 299 299 299 299 298 297 297 298 299 301 300 300 302 303 302 301 300 300 301
300 294 292 302 297 295 298 293 292 293 294 295 299 304 306 305 305 306 310 309 308 305 303 298 298 294 290 291 287 285 287 298 295 291 289 289 292 290 285 282 287 288 291 294 295 295 295 295 295 294 294 294 294 295 296 297 298 297 298 298 298 298 298 299 299 299 299 299 299 303 299 298 297 297 299 301 301 301 300 300 301 302 303 301 300 299 299
291 290 293 299 302 301 300 300 299 298 298 299 299 305 308 307 309 309 312 310 305 300 298 302 300 293 289 287 291 293 296 292 289 292 290 292 294 289 289 288 290 293 295 294 295 296 297 296 296 298 294 296 298 296 296 298 298 297 297 298 298 298 298 298 298 298 299 299 299 298 298 298 299 299 301 302 301 300 297 296 299 300 300 302 303 303 302
Wind_Speed
16 17 16 17 17 18 18 19 18 18 19 6 5 3 2 1 5 7 10 8 3 5 1 1 1 2 4 4 2 2 2 2 4 5 5 3 4 1 2 2 2 1 1 3 3 3 2 1 1 0 1 1 2 6 5 6 8 2 5 3 2 1 2 4 5 5 6 4 2 8 7 3 4 3 2 4 3 0 3 3 5 6 3 7 3 5 3
16 17 16 17 18 18 19 19 18 16 13 4 5 1 1 2 2 7 6 1 5 5 1 1 5 2 1 4 2 2 2 3 4 4 5 2 2 2 0 2 0 2 1 1 2 3 1 3 5 3 1 1 5 5 6 6 3 4 1 1 6 3 2 3 2 4 7 7 8 10 9 7 2 2 4 1 1 1 3 7 3 6 2 6 9 7 5
16 16 16 17 18 19 19 20 18 16 13 3 1 1 2 3 3 5 7 3 4 0 3 4 1 0 3 2 3 2 2 2 3 2 4 4 4 3 1 1 3 3 3 4 3 6 4 0 6 4 1 1 2 6 8 7 4 1 3 4 1 2 2 4 4 3 4 2 3 2 6 6 5 2 7 5 4 4 2 3 2 4 2 7 6 5 6
16 16 16 17 18 19 20 21 21 18 14 3 3 3 2 3 3 5 5 5 2 1 1 3 5 4 3 4 2 3 1 2 5 6 2 5 3 5 4 3 4 2 3 4 6 6 5 5 1 4 5 5 3 7 8 9 9 11 9 6 2 1 2 4 2 2 3 3 4 5 2 2 4 7 10 8 4 3 7 5 5 5 4 4 1 15 13
16 16 17 17 18 19 20 22 23 20 16 4 5 1 1 0 3 2 5 6 4 2 4 4 5 2 1 2 1 3 3 0 2 6 2 4 3 3 6 5 5 4 4 2 4 4 3 6 4 4 2 4 3 6 9 12 17 16 6 11 3 3 6 8 4 1 2 6 5 3 0 2 3 10 9 11 10 3 3 5 2 6 11 1 1 14 19
16 17 18 17 18 19 20 22 25 23 17 5 2 2 1 2 1 2 1 2 2 5 5 5 5 4 5 2 1 4 5 6 3 3 4 4 7 4 4 8 5 4 2 2 3 3 3 3 3 5 5 3 7 6 9 8 12 11 4 6 4 2 3 9 7 8 5 4 3 4 3 4 4 7 10 12 8 8 4 2 8 5 7 9 10 11 15
16 17 19 18 18 19 20 22 24 25 20 5 1 4 5 1 1 2 4 2 3 1 0 1 4 4 4 2 4 5 8 6 3 2 3 4 4 4 4 5 7 8 8 5 2 3 3 4 2 3 4 3 3 5 5 6 9 7 5 5 1 2 4 5 7 6 7 8 11 5 6 5 11 10 9 10 10 7 3 2 5 6 4 13 17 9 11
15 16 18 18 18 19 19 21 23 24 25 3 3 6 2 4 2 5 5 1 3 4 4 1 6 4 3 2 2 2 3 4 2 4 4 2 3 3 5 3 6 6 7 6 4 3 1 0 2 3 4 5 3 1 0 3 6 6 4 3 6 4 2 7 7 5 5 10 12 11 8 7 7 10 11 10 9 6 10 9 11 16 15 13 13 12 8
14 15 18 19 17 17 18 19 21 25 18 5 5 2 2 3 1 1 2 6 5 5 3 3 4 2 4 3 3 3 4 5 4 3 0 3 1 2 2 2 5 4 6 6 4 3 4 2 2 3 2 1 2 1 2 1 1 5 5 4 5 6 2 3 4 5 6 9 12 10 7 7 11 11 11 10 8 5 1 6 4 10 11 13 12 9 5
14 15 17 18 16 16 17 17 20 22 17 5 1 4 3 2 2 0 1 0 1 4 4 1 5 3 1 2 3 2 3 4 3 3 3 1 2 4 4 4 7 4 7 4 3 4 3 5 4 3 3 2 1 1 2 4 3 1 3 3 4 3 2 4 3 4 4 9 8 8 4 6 9 9 8 6 4 0 0 4 8 15 17 14 12 12 9
14 14 16 16 15 17 16 16 17 18 11 5 3 3 5 5 5 5 3 1 5 5 3 3 5 3 1 6 9 8 5 5 3 3 0 1 4 4 7 5 5 0 2 2 3 3 4 4 4 4 5 4 3 4 4 8 8 4 2 2 4 3 3 1 1 2 3 9 10 5 4 5 1 5 5 3 5 3 8 6 11 14 12 10 9 11 9
14 14 15 16 15 15 15 14 14 14 9 3 1 2 3 2 1 0 2 4 3 2 1 1 1 4 7 7 7 6 7 6 3 2 4 2 4 5 6 4 5 2 2 4 4 5 6 4 4 4 4 7 6 8 6 8 5 5 5 4 3 5 4 1 0 2 1 5 6 6 3 1 2 6 7 4 10 10 10 10 6 5 10 17 15 13 9
14 13 14 15 15 14 14 14 13 13 12 4 1 1 4 2 0 1 1 2 1 4 7 4 5 6 6 9 9 6 7 5 6 4 3 2 3 4 2 1 1 1 1 2 2 4 2 2 1 0 2 4 4 7 9 8 6 7 5 4 3 3 3 3 3 1 1 3 3 3 1 0 5 7 6 6 6 5 10 11 11 6 11 16 15 13 15
13 13 14 15 15 15 15 15 14 13 14 8 1 2 3 3 4 3 2 2 3 3 3 2 8 7 6 7 5 4 5 5 2 4 2 2 4 4 2 1 0 1 3 2 2 1 2 3 1 2 3 5 3 3 3 3 4 5 5 4 4 3 1 3 1 1 1 1 1 3 3 2 7 4 5 5 2 1 3 5 3 8 2 14 14 14 17
13 12 13 14 14 15 15 14 14 15 14 13 2 3 4 3 2 0 1 1 1 4 2 5 3 3 4 2 4 5 3 1 4 1 1 1 1 1 2 1 1 3 3 3 3 3 1 1 1 1 2 3 1 1 2 1 3 1 2 3 5 4 4 1 3 1 2 1 2 3 3 0 3 3 6 4 4 3 4 7 3 5 9 6 13 18 17
12 12 12 13 14 14 15 15 14 14 16 14 3 3 5 3 1 0 0 1 0 5 6 6 3 1 3 2 3 6 3 2 1 1 2 3 2 1 1 0 0 3 3 2 1 1 1 1 0 2 0 1 1 1 1 3 2 3 5 4 4 5 6 6 5 0 4 4 2 1 1 2 3 5 6 8 4 2 3 7 1 1 3 6 7 5 15
11 11 11 12 13 14 14 15 14 14 13 14 5 4 2 3 3 2 1 2 1 1 4 6 4 6 5 4 6 4 1 2 0 3 0 1 3 2 1 0 1 2 1 2 2 2 2 1 1 2 0 1 0 2 1 1 0 1 5 5 6 5 3 4 4 2 0 2 1 1 2 0 1 3 4 6 8 3 2 1 3 2 3 11 12 14 11
11 10 10 11 12 13 14 14 14 14 13 13 5 2 3 4 4 2 2 1 1 2 2 5 6 4 3 1 1 1 2 2 4 1 2 2 1 0 1 1 1 2 2 2 1 2 1 0 2 1 1 2 2 2 1 0 0 0 1 1 0 2 2 2 1 1 1 2 2 1 2 3 2 3 5 6 2 3 3 5 2 1 2 8 9 4 7
10 10 9 10 11 12 13 14 14 15 15 15 8 1 3 2 5 4 2 2 3 0 5 7 2 4 5 2 1 1 1 2 4 3 2 2 0 2 1 1 2 1 4 1 1 1 0 1 0 3 3 1 2 1 1 2 1 1 1 3 4 3 0 2 2 0 2 2 1 4 3 3 2 4 3 4 2 1 2 3 2 2 2 6 10 14 15
9 9 8 9 10 12 12 13 14 14 14 14 7 0 5 6 2 5 3 1 0 2 5 2 4 4 4 4 5 6 6 6 2 5 2 1 3 4 4 2 4 2 3 2 1 0 2 1 0 1 2 1 1 3 2 2 1 0 1 1 2 2 1 1 0 2 1 2 1 2 1 1 4 5 5 5 3 3 2 0 4 3 3 10 8 13 11
8 8 8 8 9 11 12 12 13 13 14 14 8 2 4 2 6 4 3 1 1 1 4 4 2 3 3 3 3 1 4 3 2 4 2 1 1 2 1 1 2 0 1 1 2 2 1 1 2 1 1 3 1 3 0 0 2 3 2 0 0 1 1 1 0 0 1 2 1 1 3 3 4 2 1 2 1 4 3 2 4 6 4 3 7 5 8
8 8 7 8 8 10 11 11 12 12 13 15 11 0 0 3 4 4 4 1 2 3 4 6 3 4 6 6 6 2 6 4 3 4 2 1 2 2 2 2 0 0 0 1 3 2 3 0 1 2 2 2 3 1 2 2 1 2 1 3 1 2 1 4 1 2 1 1 3 5 5 5 3 3 2 1 1 3 3 5 3 5 6 3 6 5 5
7 6 7 7 8 9 10 11 11 12 12 14 9 2 1 4 6 6 3 1 2 2 3 3 3 3 3 4 3 3 5 5 5 5 4 3 2 2 2 1 1 0 1 1 4 5 2 4 1 2 1 0 1 1 1 2 1 1 0 1 3 1 2 0 2 0 2 1 1 2 4 5 2 3 2 4 4 2 5 7 6 3 5 6 6 5 7
5 6 6 7 7 8 9 10 11 10 12 12 7 1 2 4 6 6 4 2 2 3 4 2 2 1 2 4 3 4 1 3 5 4 3 5 2 1 2 1 1 3 2 1 3 3 2 2 2 2 1 1 2 2 1 2 0 1 0 2 1 1 2 1 1 1 2 1 6 7 4 3 1 4 3 4 4 3 4 6 4 3 6 8 7 8 6
4 5 5 6 7 8 8 9 10 10 10 12 10 4 3 3 2 5 2 2 4 3 1 5 1 6 3 6 1 1 1 3 5 5 4 6 6 4 2 0 1 5 2 1 2 6 3 2 2 2 1 1 2 1 1 2 1 1 2 2 1 2 0 2 0 0 1 2 2 5 4 0 3 6 4 4 5 6 5 5 5 5 4 5 6 9 8
5 4 5 5 6 7 8 8 9 9 8 10 9 3 2 3 4 4 0 1 0 1 0 1 4 6 6 6 3 4 5 6 5 4 4 4 5 6 5 1 4 3 3 2 5 3 2 2 2 1 1 2 1 1 1 2 2 1 2 3 3 2 1 2 1 1 3 2 2 4 4 5 4 6 4 4 6 1 6 5 9 9 7 6 4 4 6
4 4 4 5 6 7 8 9 9 9 9 8 5 3 2 5 4 1 1 1 1 1 1 1 3 6 6 8 6 3 1 5 3 4 2 4 3 2 4 5 5 3 4 2 2 3 2 2 2 0 1 1 1 1 2 1 1 0 0 3 1 2 3 1 1 1 2 4 2 0 0 2 2 2 3 5 5 6 1 6 6 8 8 7 7 4 4
3 3 4 4 5 6 7 9 9 9 9 9 5 5 3 3 4 3 2 1 0 2 2 1 3 7 5 4 5 3 3 4 3 4 2 4 3 4 5 5 5 3 1 2 1 1 2 1 1 1 1 0 1 1 0 0 2 1 0 3 2 2 4 3 3 3 4 4 3 2 2 1 4 2 4 2 3 4 7 6 2 2 9 10 8 7 5
3 3 3 4 5 5 7 8 9 9 10 7 4 3 1 5 4 3 3 1 2 1 0 2 2 2 1 5 5 3 2 6 3 3 2 3 4 3 5 5 5 4 3 3 3 2 2 1 2 2 1 2 3 1 2 1 1 3 4 4 2 2 3 4 5 4 1 2 5 4 2 2 1 3 1 3 0 3 3 3 5 4 4 3 5 12 10
3 3 3 3 4 5 7 7 9 9 9 5 1 2 2 1 1 4 5 3 1 1 1 2 2 2 2 2 4 2 1 3 3 2 3 3 2 4 4 5 2 2 3 3 3 1 1 2 0 1 0 1 2 1 1 1 1 3 1 0 1 0 2 3 4 2 2 1 1 3 3 3 4 3 3 1 1 1 1 2 2 2 3 5 5 4 5
3 3 3 3 4 5 6 7 8 9 7 2 1 2 1 0 1 2 6 4 3 2 1 1 2 3 4 3 3 5 5 2 1 4 7 6 4 3 2 4 2 3 3 1 2 2 2 1 2 0 0 1 2 3 3 2 1 1 4 4 4 3 3 2 1 2 2 1 0 0 0 2 2 1 2 1 2 3 3 2 2 4 0 2 3 4 5
2 2 2 3 4 5 6 6 6 5 3 1 2 1 1 1 1 5 5 4 3 1 1 1 2 2 1 2 1 2 2 1 1 2 3 2 3 2 4 3 2 0 3 3 1 1 1 3 3 3 2 2 3 1 1 2 2 4 2 4 4 4 3 2 1 1 1 1 0 2 3 4 1 2 2 2 1 1 3 4 4 3 3 1 0 2 4
1 1 2 3 4 6 5 5 6 4 2 6 11 13 15 16 16 11 4 3 0 0 0 1 1 1 0 3 1 3 4 3 4 2 1 2 1 1 2 3 2 2 4 3 0 2 2 2 3 3 1 1 2 1 2 5 6 5 6 6 5 4 4 3 3 1 0 0 2 2 2 2 2 3 3 3 2 3 2 3 4 2 4 3 6 5 6
0 1 2 4 5 5 5 5 6 7 5 3 2 0 3 7 5 5 2 1 1 1 1 1 0 0 2 2 2 2 2 2 0 1 1 3 0 2 0 1 3 1 1 2 2 1 2 2 2 1 1 1 0 1 2 5 5 4 3 5 5 3 3 1 2 3 1 1 1 2 4 5 3 2 2 3 4 4 3 2 2 1 4 6 7 6 7
1 2 4 5 5 5 7 6 3 0 0 2 2 1 1 4 4 4 3 0 1 0 1 1 0 0 2 1 1 2 2 1 1 0 2 1 0 2 0 2 1 1 3 1 1 2 2 3 5 4 4 1 2 2 4 4 3 3 4 4 3 4 3 2 0 1 1 1 2 2 2 0 0 3 4 3 3 3 2 2 3 4 4 6 7 7 7
2 4 4 4 5 5 2 0 2 1 0 1 1 2 6 4 3 1 0 1 1 1 1 2 2 3 3 1 2 1 1 1 1 1 0 1 1 1 2 2 1 4 1 2 2 2 3 3 4 1 2 3 5 5 7 6 7 6 6 5 5 6 4 5 3 1 0 0 1 2 1 1 2 4 4 4 4 4 3 4 4 4 5 5 7 8 7
3 3 4 5 2 1 1 2 2 3 1 1 5 9 6 2 1 1 0 2 1 1 1 0 0 3 3 3 1 1 1 0 1 1 0 1 3 0 1 2 2 1 1 1 1 3 5 1 2 2 3 4 4 4 6 6 8 7 4 4 4 3 3 3 2 2 1 1 2 0 1 2 4 4 4 5 6 4 4 4 5 5 5 7 6 6 7
3 2 0 1 1 1 0 0 1 3 9 10 8 3 2 2 0 1 0 0 0 1 1 1 3 3 1 2 1 1 1 1 1 1 0 0 2 1 0 1 3 1 2 2 5 5 2 1 2 3 3 3 1 2 2 2 2 3 5 4 4 3 2 1 1 2 0 1 3 3 3 3 4 4 4 6 5 5 5 5 4 4 4 5 5 5 4
1 1 0 0 0 0 0 1 3 8 4 1 0 0 0 1 0 0 1 1 1 1 2 4 4 4 3 2 2 1 2 2 1 1 1 1 2 1 1 1 1 1 1 0 2 3 1 1 1 1 4 2 1 0 2 4 3 3 4 4 4 2 1 1 1 2 2 4 4 4 4 5 5 7 5 5 5 4 5 5 5 4 4 4 5 6 6
0 1 1 1 1 1 1 2 5 3 0 0 0 1 0 1 2 1 1 1 1 2 2 3 4 4 6 7 4 1 1 3 3 3 3 1 0 1 1 1 0 2 2 2 3 2 2 2 2 1 3 2 3 1 4 4 5 3 3 3 2 2 1 1 2 3 3 4 4 5 5 6 6 6 5 5 5 5 5 4 5 5 4 6 6 5 7
1 1 1 1 2 3 1 2 2 1 0 0 0 0 0 1 2 1 1 1 2 2 3 3 1 1 1 1 2 3 2 1 0 1 2 1 1 1 1 1 1 1 1 1 1 2 1 0 1 3 4 3 4 4 4 3 3 3 3 3 2 2 2 3 3 4 3 4 4 4 4 4 4 4 4 4 4 4 5 5 6 6 6 5 6 7 4
1 1 0 2 3 3 2 0 0 0 0 1 1 1 1 2 1 1 1 2 3 1 2 1 1 2 2 4 3 3 0 1 1 1 2 0 2 2 1 1 0 1 1 3 3 1 1 1 1 2 2 3 3 2 4 4 2 2 1 0 0 1 2 2 3 3 1 1 2 2 3 4 4 4 4 4 4 4 5 5 6 5 6 7 6 4 6
8 6 3 1 1 1 1 0 1 1 1 0 2 1 1 0 2 2 1 1 0 2 1 0 1 1 1 1 2 2 1 1 1 0 1 1 0 0 0 1 0 0 3 1 2 0 1 2 3 4 4 4 4 4 4 4 3 3 3 2 2 2 1 1 0 1 1 1 1 2 3 3 4 4 5 4 4 5 4 4 5 6 5 5 6 7 8
2 1 1 1 0 1 1 1 1 1 2 0 2 2 2 1 5 1 1 2 1 1 2 5 4 4 2 1 2 1 1 1 1 0 1 1 1 1 1 1 3 4 0 1 0 2 3 1 4 3 4 3 3 2 2 2 3 2 1 3 4 4 4 4 4 4 6 5 4 3 2 3 3 4 4 4 5 6 6 5 5 5 5 6 6 8 8
1 1 0 1 0 2 1 2 1 2 3 4 2 2 2 3 3 3 4 2 2 3 2 1 4 3 2 1 2 0 1 1 1 1 2 1 0 1 1 2 2 0 1 2 0 1 1 2 2 1 3 4 4 3 1 3 4 4 2 1 3 3 3 3 3 3 4 4 4 4 4 4 4 4 4 4 5 4 5 6 5 4 4 6 8 8 8
1 2 1 2 2 2 1 1 0 1 2 2 3 5 3 5 3 3 2 2 3 4 6 5 5 4 3 1 2 2 1 2 1 1 1 1 1 2 3 1 1 0 1 1 1 4 5 5 4 4 4 3 2 4 4 3 3 3 4 2 2 3 3 3 3 4 4 4 4 4 4 4 5 5 4 4 3 3 4 5 5 6 6 6 8 9 8
1 1 1 1 1 2 1 1 4 5 3 2 3 6 6 7 4 3 1 1 5 5 4 2 4 4 5 2 1 1 0 1 1 2 2 1 1 2 0 1 1 2 1 2 3 2 2 1 1 2 4 5 4 4 4 4 3 3 3 3 3 4 4 4 4 5 6 5 4 4 5 5 5 5 4 4 4 5 5 5 6 6 7 9 8 5 6
0 1 1 1 3 1 2 5 3 3 3 4 7 6 7 2 4 1 1 1 3 4 6 4 2 1 1 1 2 3 2 1 0 2 2 1 1 1 0 1 2 1 1 3 3 2 2 3 5 5 4 4 4 4 4 4 4 4 4 3 4 4 5 6 6 6 5 5 5 5 6 6 6 5 5 5 5 6 5 4 4 4 3 3 5 6 10
1 0 1 2 2 1 2 2 1 3 6 6 7 7 4 8 6 5 2 2 4 4 5 4 2 2 1 1 2 1 1 1 1 2 0 1 1 2 2 2 1 1 1 1 2 3 5 4 4 5 5 5 4 4 2 1 2 3 3 4 4 5 5 5 6 6 5 4 4 5 6 6 5 4 5 4 5 5 2 1 1 4 1 8 8 8 8
0 1 1 0 2 4 4 4 4 6 3 5 4 4 3 4 4 2 1 3 2 4 2 3 1 2 1 1 0 0 1 2 2 0 1 3 2 2 1 2 2 4 2 2 5 5 5 4 5 6 4 4 3 2 0 2 3 3 4 3 3 4 4 4 5 5 5 4 5 6 6 6 5 4 4 5 5 1 2 2 2 2 0 5 11 11 12
0 1 3 4 5 5 1 2 2 4 6 3 2 1 1 2 3 4 2 3 3 3 1 1 1 1 1 1 1 0 2 2 1 3 3 3 2 2 3 4 3 3 5 4 5 5 5 4 6 5 4 3 2 1 1 2 2 3 3 3 3 3 3 4 5 5 5 6 6 7 6 5 4 3 4 2 2 5 5 6 6 2 3 5 10 12 11
0 0 3 4 5 6 6 6 5 6 7 7 6 6 4 5 6 4 3 6 4 4 3 1 2 1 1 2 3 3 0 1 1 1 1 2 0 2 2 5 7 7 9 8 6 5 5 5 4 4 4 3 2 1 2 2 2 2 3 2 2 3 4 4 4 4 5 5 5 4 4 3 4 3 2 1 4 5 7 5 6 8 6 4 6 9 11
Wind_Direction
339 341 339 342 344 343 341 342 343 344 345 8 353 318 18 43 225 262 286 274 105 86 82 267 192 200 224 195 42 351 34 12 4 12 6 35 354 20 48 131 93 346 28 357 1 51 72 8 231 308 38 39 301 293 12 4 15 80 349 353 319 320 43 355 313 304 274 326 12 29 24 64 26 356 28 34 355 172 169 171 174 112 129 99 57 71 121
339 341 342 344 345 344 341 340 342 342 358 344 301 354 76 260 264 311 305 59 117 81 243 268 197 238 334 82 88 42 89 36 15 11 333 30 336 356 244 357 113 168 130 37 355 1 94 22 54 340 352 53 281 8 15 41 18 51 269 91 315 42 319 115 347 3 344 347 0 2 348 39 70 293 299 315 310 65 130 100 56 88 235 160 130 151 165
341 342 343 346 346 344 342 338 338 342 334 306 231 19 271 289 260 245 292 353 73 138 204 157 181 316 115 115 97 49 1 60 92 43 341 349 26 351 351 55 134 47 46 63 40 42 86 244 359 17 344 310 320 9 14 3 9 286 213 245 273 84 289 60 73 91 67 41 41 349 308 308 285 325 345 349 39 350 43 72 30 98 218 115 111 79 95
342 343 345 348 347 345 343 338 336 339 336 324 137 222 23 25 20 310 339 1 34 0 253 119 96 53 33 35 44 125 85 352 7 30 7 16 2 11 0 22 71 78 70 47 39 23 25 66 4 27 360 341 350 3 8 25 12 1 5 15 120 79 351 78 118 145 169 201 217 247 191 332 42 323 20 0 19 39 85 104 103 140 156 64 186 141 146
344 344 348 350 348 346 345 341 335 340 340 241 160 319 125 45 77 343 332 327 33 34 15 43 54 61 153 96 304 53 69 55 358 353 83 344 23 59 28 36 37 354 58 68 55 15 28 6 62 358 12 330 327 347 23 22 10 358 5 7 68 56 41 354 357 144 214 206 213 269 332 43 13 36 2 13 13 11 96 105 169 157 97 338 310 158 145
346 346 351 352 349 348 348 345 339 340 354 124 179 35 358 38 272 94 180 159 273 37 2 51 52 27 56 57 27 95 72 51 30 327 26 359 28 68 341 40 51 41 78 84 60 353 47 23 23 322 15 358 356 13 351 33 356 8 12 10 84 110 57 340 346 338 353 346 335 328 22 43 54 46 30 13 349 28 64 106 147 134 146 177 172 173 144
346 347 352 354 352 351 351 350 344 341 351 150 0 74 321 62 287 291 334 65 289 201 316 70 100 61 66 65 50 73 73 66 52 47 336 14 12 61 68 22 29 27 27 79 103 36 58 339 319 25 347 23 7 16 340 343 357 11 8 10 63 82 32 338 343 323 359 358 0 350 45 27 47 38 24 17 9 15 69 108 157 155 164 148 152 163 140
347 348 354 356 355 354 354 353 350 345 342 324 69 56 42 349 7 320 348 355 290 322 15 67 76 79 43 82 34 108 98 94 16 33 40 10 343 10 83 73 66 55 52 48 67 34 114 148 54 343 63 348 52 55 2 270 327 12 14 341 340 93 333 10 7 19 350 359 1 8 4 43 47 31 25 13 14 40 67 86 78 78 76 112 117 121 115
348 348 355 358 358 357 357 356 356 348 347 53 44 66 51 283 232 244 336 346 324 349 11 45 100 57 1 75 56 74 67 95 96 80 120 107 49 7 92 52 55 29 48 41 25 351 8 7 24 340 74 37 264 98 297 106 16 351 2 9 330 42 343 48 27 43 336 358 357 350 1 63 53 26 14 2 12 31 31 95 146 113 132 126 119 118 142
348 349 356 358 359 1 359 2 0 355 346 97 34 14 290 312 259 244 161 276 327 12 331 354 55 48 226 139 62 103 99 103 91 62 338 75 47 63 90 87 84 13 42 11 335 320 334 330 325 309 276 242 298 86 109 96 70 9 7 333 40 353 44 51 24 51 308 321 337 341 4 37 28 355 332 322 13 40 206 91 130 135 135 132 149 183 159
347 349 355 357 1 3 2 5 6 5 7 62 40 354 338 18 330 351 25 76 327 9 354 331 106 203 108 68 82 67 76 61 86 118 248 31 39 70 74 82 95 142 26 260 263 285 296 281 316 338 355 29 26 3 45 55 64 75 41 34 340 7 69 79 135 103 256 317 327 0 47 58 49 267 297 349 48 59 103 121 140 149 148 170 163 139 132
347 348 354 357 360 2 2 4 7 12 23 321 230 248 252 298 331 101 42 73 271 326 92 132 90 82 87 84 86 89 70 52 45 132 115 99 82 60 73 63 86 46 257 279 326 342 349 339 341 341 8 12 25 4 54 69 49 60 71 78 27 15 10 32 312 94 305 321 4 39 29 217 245 308 301 21 55 48 64 50 30 74 79 92 91 101 111
347 346 352 357 358 1 1 2 5 3 9 346 201 332 296 320 89 7 103 101 285 331 357 347 47 79 97 91 86 92 104 75 41 28 79 90 71 67 58 103 106 234 265 227 352 29 12 291 330 289 324 6 2 22 36 49 55 49 56 82 97 12 24 321 17 45 30 34 29 91 227 270 331 298 322 324 42 30 55 31 11 31 97 113 118 120 112
345 345 350 355 358 359 360 1 360 2 359 0 276 260 280 1 38 26 46 87 310 257 217 7 30 58 67 90 111 103 78 76 52 51 63 28 110 100 66 68 202 293 1 45 53 69 13 35 38 21 332 8 3 20 312 19 61 72 31 25 88 106 86 63 352 9 113 194 119 208 294 355 356 5 354 350 11 14 118 115 1 356 76 123 124 120 120
342 345 348 354 357 358 359 360 359 359 360 354 272 292 324 346 57 131 273 104 259 289 25 73 299 64 78 71 89 61 53 37 70 2 293 90 83 129 142 116 11 26 19 69 7 34 126 80 25 54 341 43 37 276 327 37 306 35 111 76 79 95 89 198 97 309 98 102 22 0 22 275 278 250 273 305 291 297 137 100 64 6 1 342 131 135 131
339 343 346 354 356 358 358 359 0 359 1 355 18 357 282 286 340 110 142 155 124 40 347 323 333 97 79 34 86 124 150 108 148 13 341 345 105 62 46 106 87 54 35 65 104 83 51 83 225 86 128 206 241 55 327 334 5 334 12 24 44 27 90 99 103 310 33 34 104 214 147 247 213 267 287 301 320 337 112 66 55 260 108 21 334 109 136
336 341 346 352 356 357 358 358 359 1 -0 10 348 331 295 343 14 339 40 5 80 190 256 322 6 73 75 10 22 24 80 109 145 107 120 306 158 173 256 351 358 69 88 71 4 60 21 27 57 126 266 142 77 200 300 41 50 335 333 7 29 35 359 31 27 28 75 118 77 297 200 199 281 256 286 297 310 0 59 76 250 229 170 156 175 163 161
331 339 343 351 355 356 357 358 358 358 359 354 349 279 281 315 341 27 58 81 85 309 284 351 11 37 88 177 170 245 79 23 41 67 124 243 2 39 260 73 10 319 101 67 47 50 28 98 104 130 115 259 149 69 78 215 48 231 335 10 11 0 339 67 184 166 331 80 263 350 317 288 270 308 293 313 315 74 117 192 233 229 228 147 116 54 351
327 334 341 350 353 355 357 358 357 357 358 357 340 177 274 297 337 50 112 37 69 45 288 322 28 32 329 30 85 37 120 124 148 93 334 15 11 238 195 219 126 174 358 135 64 105 86 287 77 112 120 315 32 182 199 48 237 284 58 26 7 347 35 317 48 59 233 213 150 222 237 243 280 269 309 310 359 308 201 240 272 273 230 173 154 147 155
321 330 338 347 352 354 357 357 356 357 358 359 13 184 270 301 313 54 71 57 41 253 282 297 14 12 338 45 28 23 347 22 38 119 145 140 278 21 24 15 326 69 354 51 31 255 94 353 270 97 49 194 255 172 43 267 232 167 137 191 121 222 88 238 177 276 27 26 104 344 340 298 350 325 349 21 96 226 217 271 339 342 217 153 161 146 158
316 328 335 343 351 354 356 358 356 357 356 356 5 357 349 331 13 4 55 142 117 20 310 292 331 349 338 320 322 61 117 126 115 86 217 180 221 83 115 195 235 126 186 124 119 5 114 343 331 45 198 131 268 55 191 320 334 287 135 176 180 228 74 287 334 170 147 36 73 194 218 248 293 68 147 301 164 189 176 129 38 7 32 93 126 133 143
311 321 329 339 350 352 357 357 356 357 357 354 350 46 270 288 329 325 320 149 124 184 214 268 238 257 261 261 258 146 109 140 167 148 126 25 327 144 185 131 129 126 206 106 40 16 358 297 23 38 13 324 21 137 169 57 344 283 11 79 11 281 193 173 144 260 113 217 213 240 236 217 258 133 158 185 10 87 132 93 93 75 28 5 95 94 103
306 319 328 338 347 353 355 358 357 358 357 355 0 61 245 309 322 319 342 53 316 319 293 314 337 303 293 277 260 164 147 139 102 70 112 109 343 358 69 96 5 244 41 90 162 153 182 116 141 165 33 69 142 314 352 131 172 349 53 234 168 298 281 140 86 279 300 205 199 275 358 339 332 24 101 114 75 60 93 102 86 45 84 83 83 87 104
299 313 323 335 343 352 355 356 357 356 355 351 3 60 316 298 281 342 3 73 80 341 331 327 57 312 311 301 232 254 97 68 112 144 150 119 101 314 337 319 150 41 25 253 180 130 192 124 189 121 111 243 77 60 104 341 326 257 103 342 7 327 3 61 90 286 53 281 332 11 320 296 297 96 42 51 68 86 115 99 104 145 113 96 90 99 85
296 307 317 331 341 349 353 354 356 354 355 352 344 290 246 305 303 28 42 46 336 68 154 305 315 229 306 324 294 73 192 151 126 104 87 96 129 134 141 229 161 141 167 295 40 54 47 90 357 46 97 263 107 265 250 110 303 112 60 272 10 327 16 54 191 165 142 230 276 293 277 306 2 15 26 26 40 63 62 108 120 117 89 97 124 116 105
283 300 314 328 341 346 351 354 353 351 352 346 348 340 355 265 299 327 153 52 103 110 79 318 281 312 355 10 23 117 141 135 143 123 138 156 165 151 159 54 38 45 107 103 79 93 108 47 85 116 110 289 100 137 187 191 186 227 150 222 196 184 43 263 193 255 278 312 291 307 335 47 360 18 18 35 355 6 99 109 118 114 104 97 74 100 137
277 297 309 327 336 347 352 353 352 347 343 341 334 307 274 285 277 280 96 171 73 6 38 277 280 304 356 335 284 308 67 95 75 88 97 127 113 91 96 109 112 64 72 36 36 122 76 105 98 201 165 207 116 190 159 336 133 90 270 277 290 40 280 234 88 325 313 228 248 168 200 257 311 326 1 339 2 359 61 121 115 119 124 126 116 101 121
275 290 308 328 344 351 352 349 348 343 341 332 308 281 252 265 280 307 312 119 126 175 187 259 307 288 308 289 290 262 203 84 110 152 168 159 155 131 122 135 118 97 63 89 21 38 71 88 255 230 114 356 56 314 328 153 71 37 250 256 206 173 215 135 161 166 241 254 227 192 151 210 230 228 293 325 347 27 38 14 346 185 157 148 138 140 141
275 291 302 330 346 346 348 347 341 341 339 342 307 313 302 248 260 295 337 0 104 94 109 259 295 350 57 280 302 3 144 137 168 147 173 158 165 138 130 145 152 156 95 80 110 118 124 203 169 128 169 206 95 277 32 280 170 219 229 248 219 214 171 156 189 164 236 206 203 196 138 216 217 258 301 325 77 53 20 61 59 27 355 329 168 160 157
263 281 316 335 347 346 343 343 341 339 339 338 357 65 61 323 0 29 350 1 29 119 80 54 41 258 284 293 288 311 217 170 147 126 110 92 111 172 146 124 113 104 121 148 151 112 212 140 36 10 309 79 128 172 114 209 188 251 245 271 245 350 87 127 157 147 208 194 176 184 187 216 234 216 205 227 180 152 276 284 122 29 10 49 9 311 187
259 282 307 326 340 344 340 339 336 338 353 338 70 87 95 305 290 44 3 3 5 98 154 110 208 279 331 262 226 262 260 234 161 109 84 86 76 47 91 81 44 89 75 41 69 197 147 163 133 244 356 238 120 129 187 138 239 303 243 204 202 165 154 193 188 177 180 255 279 308 110 260 268 331 339 334 270 215 187 204 171 137 164 28 8 4 307
256 300 307 327 333 325 332 330 326 342 2 325 129 153 165 182 275 323 340 330 340 65 70 50 342 350 265 307 303 342 347 117 95 59 8 26 36 2 35 74 160 148 129 147 176 90 226 203 145 172 145 214 101 131 115 136 187 241 231 225 230 209 193 192 210 282 313 210 165 17 344 321 43 157 221 261 299 70 179 229 251 213 171 177 171 327 326
256 306 328 333 321 324 324 313 308 312 253 278 276 272 268 265 262 263 293 310 57 187 142 91 177 226 309 249 301 345 353 21 23 48 38 342 106 40 37 344 21 42 355 89 295 175 220 137 101 102 266 4 122 175 160 206 220 228 203 204 213 205 205 223 204 199 45 105 134 173 219 223 256 226 212 224 230 233 214 241 248 257 296 271 260 269 296
306 317 324 308 312 316 305 305 304 299 295 321 41 12 264 228 227 221 200 218 119 250 78 121 10 289 248 290 13 294 358 114 211 62 71 315 70 70 203 41 7 84 322 144 245 102 324 78 108 156 34 271 152 92 250 251 235 230 196 183 195 212 200 130 72 70 12 318 263 190 202 219 231 267 316 291 277 277 248 185 150 233 250 262 255 231 253
251 312 296 297 295 307 309 306 322 347 303 257 263 270 57 99 110 162 150 112 74 349 43 301 129 5 333 346 219 265 311 67 77 310 129 268 45 138 170 75 338 123 274 91 43 180 179 207 155 110 217 145 97 226 239 242 266 192 154 158 180 143 93 78 294 270 294 338 12 331 301 225 349 295 268 276 291 289 261 214 199 171 213 242 252 254 222
330 303 304 300 311 306 310 25 195 236 336 253 219 172 130 104 67 48 105 298 133 153 136 239 131 199 155 187 236 274 48 56 294 48 167 130 5 342 102 127 70 259 188 129 212 163 183 182 100 226 203 144 222 196 224 196 190 196 178 175 192 156 183 178 183 212 279 140 82 334 350 239 245 258 265 263 266 264 231 240 240 213 214 225 234 244 245
327 328 310 306 317 73 334 229 176 187 223 157 113 92 81 84 51 21 37 20 352 103 153 130 73 246 169 213 248 278 75 142 330 76 20 115 194 259 65 51 197 231 54 325 257 175 251 193 113 158 188 195 248 227 204 187 173 178 186 171 171 145 140 160 184 156 107 353 336 297 275 263 274 273 271 277 270 263 275 260 246 228 226 229 227 222 225
344 320 58 48 49 32 326 282 194 176 114 115 120 68 344 15 86 21 349 56 255 89 315 92 215 251 300 105 217 262 78 214 55 128 330 200 78 299 179 134 223 125 236 223 235 178 110 99 197 186 254 250 224 183 184 146 156 140 136 142 138 136 152 172 93 93 97 330 327 308 309 296 282 274 261 271 266 270 251 248 252 242 231 226 216 205 204
301 254 34 252 107 151 205 241 117 120 92 74 58 54 284 208 111 319 227 188 65 303 246 144 233 202 177 188 265 295 157 167 88 49 145 270 110 295 85 123 288 74 302 347 289 138 152 295 303 201 256 261 139 103 90 110 95 115 132 143 136 163 153 261 192 177 188 206 224 232 226 246 260 272 260 258 268 260 257 259 256 241 235 237 228 213 210
34 68 141 185 186 252 87 72 105 100 54 94 244 115 225 175 108 247 127 79 297 241 149 228 219 183 182 187 170 265 230 120 142 216 184 292 87 155 246 111 238 108 215 179 233 153 131 197 221 163 281 231 216 207 141 137 139 166 158 181 186 181 161 201 257 240 212 234 235 255 256 245 240 250 255 257 264 277 279 265 250 245 238 238 218 196 194
210 216 283 4 321 341 311 135 35 65 147 10 171 285 78 294 231 203 152 195 203 226 183 184 184 104 262 151 124 181 283 85 188 151 121 162 240 78 58 237 211 113 246 232 252 103 124 139 110 178 235 214 185 175 147 126 138 157 163 180 183 196 219 247 256 259 257 281 297 301 292 281 273 246 241 244 251 257 261 264 257 241 226 220 214 210 195
39 225 328 295 264 259 293 36 163 68 310 203 122 270 206 214 239 298 143 150 231 171 234 141 193 178 216 170 191 142 350 185 136 112 96 259 266 145 211 237 58 147 241 239 137 90 103 184 235 268 253 225 212 170 130 134 130 104 24 24 179 202 239 252 282 310 316 278 295 311 315 311 299 286 275 274 275 272 271 268 261 247 224 222 216 186 174
277 228 160 246 265 213 140 4 269 138 120 323 43 347 329 339 222 182 257 237 271 117 233 76 187 134 337 54 36 22 173 174 111 131 84 219 147 102 153 289 120 295 238 225 119 132 161 206 218 246 215 183 186 158 162 164 172 169 199 214 242 276 289 331 334 290 287 295 283 276 279 298 304 296 295 288 282 281 269 258 251 245 229 213 206 188 184
268 129 75 227 94 289 90 317 254 44 347 61 121 201 232 309 303 276 231 266 227 216 203 141 198 134 201 280 143 236 26 0 22 82 297 263 119 191 153 227 212 237 107 31 138 197 221 211 202 217 195 174 165 159 196 192 199 210 326 26 38 48 42 30 14 9 343 332 330 315 311 300 296 300 300 294 284 274 266 260 254 250 232 209 205 200 193
62 107 16 26 8 267 65 299 345 115 201 248 184 211 191 193 241 190 191 238 128 210 192 124 136 137 159 237 61 1 138 169 303 103 231 142 34 236 139 248 245 37 124 236 68 53 331 263 257 160 162 163 180 193 116 58 60 79 90 42 10 18 34 11 331 316 305 303 296 299 303 290 293 291 289 285 282 268 255 262 265 261 237 216 209 201 190
98 153 105 105 273 294 130 229 150 266 264 174 205 193 187 235 225 234 237 149 130 142 146 176 148 118 134 206 137 205 173 107 89 237 215 73 110 252 236 239 83 59 285 163 181 205 216 228 196 202 193 165 123 81 86 88 90 86 78 29 309 318 316 304 289 281 273 277 286 288 283 286 277 271 266 258 243 255 259 258 261 252 240 222 216 202 193
12 318 113 129 113 267 133 183 234 206 192 222 219 196 207 237 230 223 221 93 143 169 120 106 119 155 148 209 101 8 1 125 171 232 89 74 190 257 346 102 249 205 191 246 234 236 254 239 145 105 89 84 75 64 56 48 41 48 32 346 333 312 292 289 280 272 268 260 258 269 277 278 275 266 268 283 274 256 257 263 263 251 228 225 211 183 165
183 252 90 144 232 190 187 245 216 275 270 250 254 232 233 185 108 217 270 108 145 112 123 112 95 33 30 327 80 196 195 142 73 290 175 200 28 37 8 323 249 252 167 166 222 201 152 108 116 107 96 90 85 68 43 26 8 1 343 319 304 294 296 293 292 286 287 289 289 289 291 290 285 281 275 271 278 267 259 274 268 227 181 131 121 137 138
244 101 149 203 219 220 240 253 359 312 265 261 265 274 189 151 178 191 193 124 133 153 161 126 177 98 197 200 145 105 300 250 113 251 125 60 121 206 167 227 211 245 258 134 154 124 140 144 120 106 92 75 64 61 39 21 343 304 296 293 288 289 297 306 306 300 298 294 289 283 278 273 270 272 278 277 276 281 302 22 21 308 224 134 125 118 104
106 339 337 89 348 307 272 303 326 283 303 334 336 2 23 104 132 212 162 131 158 121 84 44 51 101 205 123 134 252 217 184 194 252 122 201 208 216 171 254 227 193 202 130 132 148 136 117 99 85 84 92 85 92 69 308 329 343 319 304 329 333 332 333 327 320 317 317 314 307 293 284 273 274 274 275 272 204 70 37 52 69 244 134 121 114 113
281 147 228 186 189 232 35 268 233 270 315 305 311 298 157 193 195 219 233 130 123 82 58 161 214 115 67 34 79 37 249 174 127 196 176 203 203 195 177 189 218 162 131 121 119 127 121 115 108 115 112 126 136 45 337 320 346 0 346 353 347 351 345 341 333 331 333 332 322 317 317 303 283 271 267 253 154 116 84 57 37 15 132 125 115 114 106
116 238 256 256 231 239 243 262 284 260 249 263 266 247 166 197 209 219 167 122 127 125 190 192 121 101 90 197 214 199 197 72 215 193 232 265 175 159 212 180 164 151 138 132 126 123 117 128 131 129 140 114 85 40 37 42 32 6 358 348 358 5 350 340 334 332 335 333 324 315 306 313 319 315 314 209 161 130 109 107 89 71 43 36 96 115 123